PCSAT (NO-44) (26931 NORAD) Tracking and Keplerian Element Data

This shows tracking and keplerian element data for the satellite.

Feedback or suggestion? Click here.




ElementValue
Catalog26931
NamePCSAT (NO-44)
Epoch Orbit18480
Epoch Day160.05238169
Epoch Year2024
RAAN355.1532
Inclination67.0518
Eccentricity0.0006947
Argument of Perigee280.1173
Mean Anonmoly79.9144
Mean Motion14.31245983
Decay Rate4.43E-06
L11 26931U 01043C 24160.05238169 .00000443 00000+0 19865-3 0 9998
L22 26931 67.0518 355.1532 0006947 280.1173 79.9144 14.31245983184807



Live tracking and technical data element details for PCSAT (NO-44) (NORAD 26931). PCSAT (NO-44) can be tracked NOW for your location showing map with azimuth and elevation plus other details from your city location.







IsCatalogInMostPopularTable: catalog: 26931, numindb: 1327
Update: records affected: 1



GetName: 26931 PCSAT (NO-44)

Hit Count: updated at: Tue, 17 Sep 2024 12:09:39 GMT